User: anonymous   Login
Location: Brno
(49.2000°N, 16.6330°E)
Time: 09:48:23
(UTC+02:00)
Language:

Meteor 1-4 Rocket - Orbit

View from above orbital plane
View from above orbital plane
View from above satellite
View from above satellite

Ground track
Ground track

The orbit data is extracted from the following two-line orbital elements,

1  4394U 70037B   17143.59739521 +.00000984 +00000-0 +34076-4 0  9999
2  4394 081.2441 043.7107 0040229 206.4057 153.5129 15.28025566561485
Epoch (UTC): 23 May 2017 14:20:14
Eccentricity: 0.0040229
inclination: 81.2441°
perigee height: 454 km
apogee height: 509 km
right ascension of ascending node: 43.7107°
argument of perigee: 206.4057°
revolutions per day: 15.28025566
mean anomaly at epoch: 153.5129°
orbit number at epoch: 56148

The dashed part of the orbit path shows where the satellite is in the earth's shadow,  

DLR